Location: Julian California
(33.0790°N, 116.6010°W)
Time: 14:56:49
(UTC-07:00)

NOSS 3-2 (C) - Pass Details

Date: 19 May 2017
Orbit: 882 x 1331 km, 63.4° (Epoch: 21 May)

Event Time Altitude Azimuth Distance (km) Brightness Sun altitude
Rises 21:27:01 0° 328° (NNW) 4,072 8.1 -19.3°
Reaches altitude 10° 21:29:40 10° 328° (NNW) 3,162 7.3 -19.7°
Maximum altitude 21:37:25 82° 242° (WSW) 1,299 4.1 -20.9°
Enters shadow 21:41:50 31° 158° (SSE) 2,121 4.7 -21.5°
